sat.trackr.live / text

‹ back to catalog

STARLINK-1591

NORAD 46045 · 2020-055U

PAYLOAD ACTIVE UNKNOWN

§ Identity

Operator
Country
US
Launch date
2020-08-07
Launch site
AFETR
Launch vehicle
Mass (kg)
RCS (m²)

Purposes: comms

External: N2YO · Heavens-Above · Gunter

§ Orbital elements

Epoch: 2026-05-25T03:27:09.816768Z

Period
94.11 min
Inclination
53.1582°
Eccentricity
0.0001307
Mean motion
15.30193850 rev/d
Perigee alt
474.3 km
Apogee alt
476.1 km
Semi-major
6,853.4 km
B*
7.0221e-6
RAAN
131.5808°
Arg perigee
97.5809°
Mean anomaly
262.5340°
Rev number
32,057

§ Raw data

STARLINK-15911 46045U 20055U   26145.14386362 -.00000151  00000+0  70221-5 0  99962 46045  53.1582 131.5808 0001307  97.5809 262.5340 15.30193850320574

JSON: /api/v1/satellites/46045 · /tle

For live sub-satellite position, see the globe view (requires WebGL).

§ Visibility from observer

Set your observer location to see the next 7 days of passes ≥ 10°. The values pass through the URL so the page stays shareable.

No JS? Fill the form by hand. The geolocation button needs JavaScript.